Time,TemperatureF,DewpointF,PressureIn,WindDirection,WindDirectionDegrees,WindSpeedMPH,WindSpeedGustMPH,Humidity,HourlyPrecipIn,Conditions,Clouds,dailyrainin,SoftwareType,DateUTC
2013-08-24 00:00:00,47.0,47.0,29.58,West,260,29.0,-999.0,100,-99.99,,,-99.99,,2013-08-24 03:00:00,
2013-08-24 00:44:00,47.0,47.0,29.58,West,260,29.0,-999.0,100,-99.99,,,-99.99,,2013-08-24 03:44:00,
2013-08-24 00:54:00,47.0,47.0,29.58,West,260,29.0,-999.0,100,-99.99,,,-99.99,,2013-08-24 03:54:00,
2013-08-24 01:00:00,48.0,48.0,29.63,West,280,24.0,-999.0,100,-99.99,,,-99.99,,2013-08-24 04:00:00,
2013-08-24 01:44:00,48.0,48.0,29.63,West,280,24.0,-999.0,100,-99.99,,,-99.99,,2013-08-24 04:44:00,
2013-08-24 01:53:00,48.0,48.0,29.63,West,280,24.0,-999.0,100,-99.99,,,-99.99,,2013-08-24 04:53:00,
2013-08-24 02:00:00,47.0,47.0,29.67,WNW,290,24.0,-999.0,100,-99.99,,,-99.99,,2013-08-24 05:00:00,
2013-08-24 02:43:00,47.0,47.0,29.67,WNW,290,24.0,-999.0,100,-99.99,,,-99.99,,2013-08-24 05:43:00,
2013-08-24 02:53:00,47.0,47.0,29.67,WNW,290,24.0,-999.0,100,-99.99,,,-99.99,,2013-08-24 05:53:00,
2013-08-24 03:00:00,47.0,47.0,29.71,WNW,300,21.0,-999.0,100,-99.99,,,-99.99,,2013-08-24 06:00:00,
2013-08-24 03:41:00,47.0,47.0,29.71,WNW,300,21.0,-999.0,100,-99.99,,,-99.99,,2013-08-24 06:41:00,
2013-08-24 03:52:00,47.0,47.0,29.71,WNW,300,21.0,-999.0,100,-99.99,,,-99.99,,2013-08-24 06:52:00,
2013-08-24 04:00:00,46.0,46.0,29.74,WNW,300,18.0,-999.0,100,-99.99,,,-99.99,,2013-08-24 07:00:00,
2013-08-24 04:42:00,46.0,46.0,29.74,WNW,300,18.0,-999.0,100,-99.99,,,-99.99,,2013-08-24 07:42:00,
2013-08-24 04:53:00,46.0,46.0,29.74,WNW,300,18.0,-999.0,100,-99.99,,,-99.99,,2013-08-24 07:53:00,
2013-08-24 06:00:00,46.0,46.0,29.79,NW,310,17.0,-999.0,100,-99.99,,,-99.99,,2013-08-24 09:00:00,
2013-08-24 06:44:00,46.0,46.0,29.79,NW,310,17.0,-999.0,100,-99.99,,,-99.99,,2013-08-24 09:44:00,
2013-08-24 06:53:00,46.0,46.0,29.79,NW,310,17.0,-999.0,100,-99.99,,,-99.99,,2013-08-24 09:53:00,
2013-08-24 07:00:00,45.0,45.0,29.82,NW,310,16.0,-999.0,100,-99.99,,,-99.99,,2013-08-24 10:00:00,
2013-08-24 07:42:00,45.0,45.0,29.82,NW,310,16.0,-999.0,100,-99.99,,,-99.99,,2013-08-24 10:42:00,
2013-08-24 07:52:00,45.0,45.0,29.82,NW,310,16.0,-999.0,100,-99.99,,,-99.99,,2013-08-24 10:52:00,
2013-08-24 08:00:00,45.0,45.0,29.84,NW,320,15.0,-999.0,100,-99.99,,,-99.99,,2013-08-24 11:00:00,
2013-08-24 08:42:00,45.0,45.0,29.84,NW,320,15.0,-999.0,100,-99.99,,,-99.99,,2013-08-24 11:42:00,
2013-08-24 08:52:00,45.0,45.0,29.84,NW,320,15.0,-999.0,100,-99.99,,,-99.99,,2013-08-24 11:52:00,
2013-08-24 09:00:00,46.0,46.0,29.87,WNW,300,15.0,-999.0,100,-99.99,,,-99.99,,2013-08-24 12:00:00,
2013-08-24 09:41:00,46.0,46.0,29.87,WNW,300,15.0,-999.0,100,-99.99,,,-99.99,,2013-08-24 12:41:00,
2013-08-24 09:52:00,46.0,46.0,29.87,WNW,300,15.0,-999.0,100,-99.99,,,-99.99,,2013-08-24 12:52:00,
2013-08-24 10:00:00,46.0,46.0,29.90,WNW,290,13.0,-999.0,100,-99.99,,,-99.99,,2013-08-24 13:00:00,
2013-08-24 10:42:00,46.0,46.0,29.90,WNW,290,13.0,-999.0,100,-99.99,,,-99.99,,2013-08-24 13:42:00,
2013-08-24 10:52:00,46.0,46.0,29.90,WNW,290,13.0,-999.0,100,-99.99,,,-99.99,,2013-08-24 13:52:00,
2013-08-24 11:00:00,45.0,45.0,29.92,WNW,300,11.0,-999.0,100,-99.99,,,-99.99,,2013-08-24 14:00:00,
2013-08-24 11:42:00,45.0,45.0,29.92,WNW,300,11.0,-999.0,100,-99.99,,,-99.99,,2013-08-24 14:42:00,
2013-08-24 11:52:00,45.0,45.0,29.92,WNW,300,11.0,-999.0,100,-99.99,,,-99.99,,2013-08-24 14:52:00,
2013-08-24 12:00:00,45.0,45.0,29.95,NW,320,9.0,-999.0,100,-99.99,,,-99.99,,2013-08-24 15:00:00,
2013-08-24 12:45:00,45.0,45.0,29.95,NW,320,9.0,-999.0,100,-99.99,,,-99.99,,2013-08-24 15:45:00,
2013-08-24 12:54:00,45.0,45.0,29.95,NW,320,9.0,-999.0,100,-99.99,,,-99.99,,2013-08-24 15:54:00,
2013-08-24 13:00:00,45.0,45.0,29.96,NW,310,10.0,-999.0,100,-99.99,,,-99.99,,2013-08-24 16:00:00,
2013-08-24 13:42:00,45.0,45.0,29.96,NW,310,10.0,-999.0,100,-99.99,,,-99.99,,2013-08-24 16:42:00,
2013-08-24 13:53:00,45.0,45.0,29.96,NW,310,10.0,-999.0,100,-99.99,,,-99.99,,2013-08-24 16:53:00,
2013-08-24 14:00:00,45.0,45.0,29.98,NW,320,9.0,-999.0,100,-99.99,,,-99.99,,2013-08-24 17:00:00,
2013-08-24 14:42:00,45.0,45.0,29.98,NW,320,9.0,-999.0,100,-99.99,,,-99.99,,2013-08-24 17:42:00,
2013-08-24 14:52:00,45.0,45.0,29.98,NW,320,9.0,-999.0,100,-99.99,,,-99.99,,2013-08-24 17:52:00,
2013-08-24 16:00:00,46.0,46.0,30.00,North,350,9.0,-999.0,100,-99.99,,,-99.99,,2013-08-24 19:00:00,
2013-08-24 16:42:00,46.0,46.0,30.00,North,350,9.0,-999.0,100,-99.99,,,-99.99,,2013-08-24 19:42:00,
2013-08-24 16:52:00,46.0,46.0,30.00,North,350,9.0,-999.0,100,-99.99,,,-99.99,,2013-08-24 19:52:00,
2013-08-24 17:00:00,45.0,45.0,30.03,North,360,10.0,-999.0,100,-99.99,,,-99.99,,2013-08-24 20:00:00,
2013-08-24 17:42:00,45.0,45.0,30.03,North,360,10.0,-999.0,100,-99.99,,,-99.99,,2013-08-24 20:42:00,
2013-08-24 17:52:00,45.0,45.0,30.03,North,360,10.0,-999.0,100,-99.99,,,-99.99,,2013-08-24 20:52:00,
2013-08-24 18:00:00,46.0,46.0,30.05,North,350,8.0,-999.0,100,-99.99,,,-99.99,,2013-08-24 21:00:00,
2013-08-24 18:43:00,46.0,46.0,30.05,North,350,8.0,-999.0,100,-99.99,,,-99.99,,2013-08-24 21:43:00,
2013-08-24 18:54:00,46.0,46.0,30.05,North,350,8.0,-999.0,100,-99.99,,,-99.99,,2013-08-24 21:54:00,
2013-08-24 19:00:00,45.0,45.0,30.05,NNW,340,7.0,-999.0,100,-99.99,,,-99.99,,2013-08-24 22:00:00,
2013-08-24 19:42:00,45.0,45.0,30.05,NNW,340,7.0,-999.0,100,-99.99,,,-99.99,,2013-08-24 22:42:00,
2013-08-24 19:53:00,45.0,45.0,30.05,NNW,340,7.0,-999.0,100,-99.99,,,-99.99,,2013-08-24 22:53:00,
2013-08-24 20:00:00,45.0,45.0,30.07,NNW,340,7.0,-999.0,100,-99.99,,,-99.99,,2013-08-24 23:00:00,
2013-08-24 20:42:00,45.0,45.0,30.07,NNW,340,7.0,-999.0,100,-99.99,,,-99.99,,2013-08-24 23:42:00,
2013-08-24 20:52:00,45.0,45.0,30.07,NNW,340,7.0,-999.0,100,-99.99,,,-99.99,,2013-08-24 23:52:00,
2013-08-24 21:00:00,45.0,45.0,30.07,North,350,7.0,-999.0,100,-99.99,,,-99.99,,2013-08-25 00:00:00,
2013-08-24 21:41:00,45.0,45.0,30.07,North,350,7.0,-999.0,100,-99.99,,,-99.99,,2013-08-25 00:41:00,
2013-08-24 21:52:00,45.0,45.0,30.07,North,350,7.0,-999.0,100,-99.99,,,-99.99,,2013-08-25 00:52:00,
2013-08-24 22:00:00,45.0,45.0,30.07,North,360,6.0,-999.0,100,-99.99,,,-99.99,,2013-08-25 01:00:00,
2013-08-24 22:42:00,45.0,45.0,30.07,North,360,6.0,-999.0,100,-99.99,,,-99.99,,2013-08-25 01:42:00,
2013-08-24 22:52:00,45.0,45.0,30.07,North,360,6.0,-999.0,100,-99.99,,,-99.99,,2013-08-25 01:52:00,
2013-08-24 23:00:00,44.0,44.0,30.06,North,10,6.0,-999.0,100,-99.99,,,-99.99,,2013-08-25 02:00:00,
2013-08-24 23:42:00,44.0,44.0,30.06,North,10,6.0,-999.0,100,-99.99,,,-99.99,,2013-08-25 02:42:00,
2013-08-24 23:52:00,44.0,44.0,30.06,North,10,6.0,-999.0,100,-99.99,,,-99.99,,2013-08-25 02:52:00,